Regional Weather Roundup
Issued by NWS Kansas City/Pleasant Hill, MO

Home | Current Version | Previous Version | Graphics & Text | Print | Product List | Glossary Off
Versions: 1 2 3 4 5 6 7 8 9 10 11 12 13 14 15 16 17 18 19 20 21 22 23 24 25 26 27 28 29 30 31 32 33 34 35 36 37 38 39 40 41 42 43 44 45 46 47 48 49 50

000
ASUS43 KEAX 240210
RWREAX

WEATHER ROUNDUP FOR EASTERN KANSAS AND NORTHWEST MISSOURI
NATIONAL WEATHER SERVICE KANSAS CITY/PLEASANT HILL MO
800 PM CST THU NOV 23 2017

KSZ040-057-103>105-MOZ028-029-037-043-240300-
...KANSAS CITY METROPOLITAN AREA...

CITY           SKY/WX    TMP DP  RH WIND       PRES   REMARKS
K.C. INTL      PTCLDY    46  37  71 S10       29.93F
K.C. DOWNTOWN  CLEAR     51  35  54 CALM      29.92F
LEES SUMMIT    CLEAR     53  36  52 S7        29.94F
OLATHE - IXD   CLEAR     47  36  65 S7        29.94F
OLATHE - OJC   CLEAR     49  36  61 S7        29.93F
LAWRENCE       CLOUDY    46  37  71 E5        29.93S

$$

MOZ001>008-011>017-020>025-030>033-038>040-044>046-053-054-240300-
...NORTHERN AND CENTRAL MISSOURI...

CITY           SKY/WX    TMP DP  RH WIND       PRES   REMARKS
ST. JOSEPH     CLEAR     42  36  79 S5        29.90F
MOSBY          CLEAR     41  32  70 CALM      29.92F
WARRENSBURG    CLEAR     45  34  65 S7        29.95S
WHITEMAN AFB   CLEAR     45  33  61 SW6       29.91S
CLINTON        CLEAR     46  32  57 MISG      29.97R
SEDALIA        CLEAR     50  35  56 S8        29.95F
WARSAW         NOT AVBL
CHILLICOTHE      N/A     40  34  79 CALM      29.94S
KIRKSVILLE     CLEAR     41  33  73 CALM      29.93F

$$

MOZ041-047>049-056>058-063>065-088>090-097-240300-
...EASTERN AND SOUTHERN MISSOURI...

CITY           SKY/WX    TMP DP  RH WIND       PRES   REMARKS
ST. LOUIS INTL CLEAR     42  31  64 CALM      29.97S
SPIRIT OF STL  CLEAR     37  31  78 CALM      29.96S
COLUMBIA       CLEAR     46  32  58 SW5       29.95F
JEFFERSON CITY CLEAR     42  32  67 CALM      29.96F
ROLLA          CLEAR     40  30  67 W3        29.97R
OSAGE BEACH    CLEAR     44  31  60 CALM      29.98S
SPRINGFIELD    CLEAR     40  31  70 S3        29.97F
BRANSON        CLEAR     52  28  40 SW5       30.00F
JOPLIN         CLEAR     50  32  50 S5        29.99S
WEST PLAINS    CLEAR     43  27  53 SW3       29.99S

$$

IAZ060-094-KSZ022-034>040-054-083-096-NEZ052-066-093-240300-
...KANSAS...SOUTHEAST NEBRASKA AND IOWA...

CITY           SKY/WX    TMP DP  RH WIND       PRES   REMARKS
TOPEKA         CLOUDY    51  38  60 SE5       29.91S
MANHATTAN      CLOUDY    45  37  73 CALM      29.89F
EMPORIA        CLOUDY    52  35  52 S12       29.93S
CHANUTE        CLEAR     49  33  54 S9        29.97S
WICHITA        CLEAR     48  36  63 S8        29.94F
OMAHA          MOCLDY    54  38  54 S10       29.81F
LINCOLN        CLOUDY    53  41  63 S9        29.82F
FALLS CITY     PTCLDY    54  38  54 S9        29.87F
LAMONI         CLEAR     48  35  60 S8        29.89S
DES MOINES     PTCLDY    46  32  58 S10       29.85F

$$




USA.gov is the U.S. government's official web portal to all federal, state and local government web resources and services.